Fairbanks, AK

8:57 PM AKDT on August 25, 2019 (GMT -0800)
Fairbanks International

Weather History for PAFA - January, 1975

Change the Weather History Date:

Saturday, January 11, 1975

  Actual Average Record
Temperature  
Mean Temperature -34 °F -8 °F  
Max Temperature -24 °F 1 °F 37 °F (1940)
Min Temperature -43 °F -17 °F -59 °F (1906)
Degree Days  
Heating Degree Days 98 73  
Month to date heating degree days 799  
Since 1 July heating degree days 7071  
Cooling Degree Days 0 0  
Month to date cooling degree days 0  
Year to date cooling degree days 0  
Moisture  
Dew Point -39 °F    
Average Humidity 70    
Maximum Humidity 74    
Minimum Humidity 53    
Precipitation  
Precipitation 0.00 in 0.02 in 1.01 in (1937)
Month to date precipitation 0.23  
Year to date precipitation 0.23  
Snow  
Snow 0.00 in 0.40 in 9.60 in (1940)
Month to date snowfall 4.1  
Since 1 July snowfall 42.0  
Snow Depth -    
Sea Level Pressure  
Sea Level Pressure 29.95 in    
Wind  
Wind Speed 1 mph (NNE)    
Max Wind Speed 5 mph    
Max Gust Speed -    
Visibility 3 miles    
Events Fog    
T = Trace of Precipitation, MM = Missing Value Source: NWS Daily Summary

Daily Weather History Graph

Daily Weather History Graph

Search for Another Location

Airport or City:

Astronomy

Jan. 11, 1975 Rise Set
Actual Time 9:37 AM AHST 2:22 PM AHST
Civil Twilight 8:22 AM AHST 3:36 PM AHST
Nautical Twilight 7:15 AM AHST 4:44 PM AHST
Astronomical Twilight 6:15 AM AHST 5:44 PM AHST
Moon 8:49 AM AHST (1/11) 2:23 PM AHST (1/11)
Length of Visible Light 7h 13m
Length of Day
4h 44m
Waning Crescent, 0% of the Moon is Illuminated
Jan 11
Waning Crescent
Jan 12
New
Jan 20
First Quarter
Jan 27
Full
Feb 2
Last Quarter

Hourly Weather History & Observations

Time (AHST) Temp. Windchill Dew Point Humidity Pressure Visibility Wind Dir Wind Speed Gust Speed Precip Events Conditions
12:00 AM -42.0 °F - -49.0 °F 67% 30.27 in 0.2 mi Calm Calm - N/A Fog Fog
1:00 AM -43.1 °F - -50.1 °F 67% 30.24 in 0.2 mi Calm Calm - N/A Fog Fog
2:00 AM -42.0 °F - -49.0 °F 67% 30.23 in 0.2 mi Calm Calm - N/A Fog Fog
3:00 AM -40.0 °F - -47.0 °F 68% 30.19 in 0.2 mi Calm Calm - N/A Fog Fog
3:16 AM - - - N/A% 30.09 in 0.5 mi Calm Calm - N/A Fog Fog
3:44 AM - - - N/A% 30.08 in 0.2 mi NE 3.5 mph - N/A Fog Fog
4:00 AM -38.9 °F - -45.9 °F 68% 30.16 in 0.2 mi Calm Calm - N/A Fog Fog
4:27 AM - - - N/A% 30.05 in 0.5 mi North 3.5 mph - N/A Fog Fog
5:00 AM - - - N/A% 30.12 in 0.2 mi North - - N/A Fog Fog
5:38 AM - - - N/A% 30.01 in 0.5 mi NNW 3.5 mph - N/A Fog Fog
6:00 AM -38.0 °F -54.3 °F -45.0 °F 68% 30.08 in 0.5 mi North 4.6 mph - N/A Fog Fog
7:00 AM -38.0 °F -54.3 °F -45.0 °F 68% 30.07 in 0.5 mi South 4.6 mph - N/A Fog Fog
8:00 AM -36.0 °F -49.0 °F -43.1 °F 68% 30.04 in 0.8 mi NNE 3.5 mph - N/A Fog Fog
8:36 AM - - - N/A% 29.95 in 1.0 mi Calm Calm - N/A Fog Fog
9:00 AM - - - N/A% 30.02 in 0.5 mi Calm Calm - N/A Fog Fog
10:00 AM -32.1 °F -44.5 °F -38.0 °F 73% 29.98 in 7.0 mi NNE 3.5 mph - N/A   Clear
11:00 AM -29.0 °F - -35.0 °F 73% 29.94 in 7.0 mi Calm Calm - N/A   Mostly Cloudy
12:00 PM -27.0 °F - -33.0 °F 73% 29.91 in 6.0 mi Calm Calm - N/A Fog Fog
1:00 PM -26.0 °F - -32.1 °F 73% 29.86 in 6.0 mi Calm Calm - N/A Fog Fog
2:00 PM -24.0 °F - -36.0 °F 53% 29.83 in 3.0 mi Calm Calm - N/A Fog Fog
3:00 PM -25.1 °F - -31.0 °F 74% 29.79 in 7.0 mi Calm Calm - N/A   Clear
4:00 PM -26.0 °F - -32.1 °F 73% 29.76 in 7.0 mi Calm Calm - N/A   Partly Cloudy
5:00 PM -27.0 °F - -33.0 °F 73% 29.75 in 7.0 mi Calm Calm - N/A   Partly Cloudy
6:00 PM -27.9 °F -39.8 °F -34.1 °F 73% 29.73 in 7.0 mi North 3.5 mph - N/A   Partly Cloudy
7:00 PM -29.0 °F - -35.0 °F 73% 29.70 in 6.0 mi Calm Calm - N/A Fog Fog
8:00 PM -31.0 °F -43.3 °F -36.9 °F 73% 29.69 in 6.0 mi SSW 3.5 mph - N/A Fog Fog
9:00 PM -31.0 °F -46.1 °F -36.9 °F 73% 29.67 in 5.0 mi North 4.6 mph - N/A Fog Fog
10:00 PM -31.0 °F - -36.9 °F 73% 29.66 in 5.0 mi Calm Calm - N/A Fog Fog
11:00 PM -32.1 °F - -38.0 °F 73% 29.65 in 6.0 mi Calm Calm - N/A Fog Fog